IRIDIUM 141 (43077 NORAD) Tracking and Keplerian Element Data

This shows tracking and keplerian element data for the satellite.

Feedback or suggestion? Click here.




ElementValue
Catalog43077
NameIRIDIUM 141
Epoch Orbit33816
Epoch Day159.58623964
Epoch Year2024
RAAN271.0651
Inclination86.3957
Eccentricity0.000213
Argument of Perigee92.7873
Mean Anonmoly267.3567
Mean Motion14.34217942
Decay Rate4.5E-07
L11 43077U 17083H 24159.58623964 .00000045 00000+0 89099-5 0 9992
L22 43077 86.3957 271.0651 0002130 92.7873 267.3567 14.34217942338169



Live tracking and technical data element details for IRIDIUM 141 (NORAD 43077). IRIDIUM 141 can be tracked NOW for your location showing map with azimuth and elevation plus other details from your city location.







IsCatalogInMostPopularTable: catalog: 43077, numindb: 688
Update: records affected: 1



GetName: 43077 IRIDIUM 141

Hit Count: updated at: Mon, 17 Jun 2024 23:15:11 GMT